| time (UTC) | temp F | wind direction | speed MPH | gust MPH | rain 1hr in | rain 24hr in | rain mn in | humidity % | barometer mb |
| 20260901161017 | 85 | 149 | 2.0 | 6.0 | 0.00 | 0.00 | 0.00 | 36 | 1021.1 |
| 20260901160517 | 85 | 133 | 2.0 | 8.0 | 0.00 | 0.00 | 0.00 | 36 | 1021.2 |
| 20260901160501 | 85 | 131 | 2.0 | 8.0 | 0.00 | 0.00 | 0.00 | 36 | 1021.2 |
| 20260901160018 | 85 | 98 | 2.0 | 8.0 | 0.00 | 0.00 | 0.00 | 36 | 1021.2 |
| 20260901155516 | 85 | 107 | 2.0 | 8.0 | 0.00 | 0.00 | 0.00 | 36 | 1021.1 |
| 20260901155501 | 85 | 113 | 2.0 | 8.0 | 0.00 | 0.00 | 0.00 | 36 | 1021.1 |
| 20260901155016 | 85 | 305 | 2.0 | 8.0 | 0.00 | 0.00 | 0.00 | 36 | 1021.1 |
| 20260901154516 | 84 | 323 | 2.0 | 8.0 | 0.00 | 0.00 | 0.00 | 37 | 1021.1 |
| 20260901154457 | 84 | 325 | 3.0 | 8.0 | 0.00 | 0.00 | 0.00 | 36 | 1021.1 |
| 20260901154016 | 85 | 349 | 3.0 | 8.0 | 0.00 | 0.00 | 0.00 | 36 | 1021.0 |
| 20260901153516 | 85 | 88 | 4.0 | 8.0 | 0.00 | 0.00 | 0.00 | 36 | 1021.0 |
| 20260901153458 | 85 | 90 | 3.0 | 8.0 | 0.00 | 0.00 | 0.00 | 36 | 1021.0 |
| 20260901153016 | 86 | 132 | 3.0 | 9.0 | 0.00 | 0.00 | 0.00 | 34 | 1021.1 |
| 20260901152516 | 86 | 206 | 2.0 | 9.0 | 0.00 | 0.00 | 0.00 | 34 | 1021.0 |
| 20260901152458 | 86 | 214 | 2.0 | 9.0 | 0.00 | 0.00 | 0.00 | 34 | 1021.0 |
| 20260901152016 | 86 | 133 | 3.0 | 9.0 | 0.00 | 0.00 | 0.00 | 34 | 1021.0 |
| 20260901151515 | 85 | 107 | 4.0 | 9.0 | 0.00 | 0.00 | 0.00 | 34 | 1020.9 |
| 20260901151459 | 85 | 106 | 4.0 | 9.0 | 0.00 | 0.00 | 0.00 | 34 | 1020.9 |
| 20260901151016 | 85 | 71 | 3.0 | 9.0 | 0.00 | 0.00 | 0.00 | 35 | 1020.9 |
| 20260901150516 | 85 | 65 | 3.0 | 8.0 | 0.00 | 0.00 | 0.00 | 35 | 1021.0 |
| 20260901150458 | 85 | 66 | 3.0 | 8.0 | 0.00 | 0.00 | 0.00 | 35 | 1021.0 |
| 20260901150016 | 86 | 338 | 2.0 | 7.0 | 0.00 | 0.00 | 0.00 | 34 | 1021.0 |
| 20260901145516 | 86 | 319 | 2.0 | 12.0 | 0.00 | 0.00 | 0.00 | 34 | 1021.0 |
| 20260901145456 | 86 | 317 | 2.0 | 12.0 | 0.00 | 0.00 | 0.00 | 34 | 1021.0 |
| 20260901145015 | 86 | 42 | 2.0 | 12.0 | 0.00 | 0.00 | 0.00 | 34 | 1021.1 |
| 20260901144518 | 86 | 145 | 3.0 | 12.0 | 0.00 | 0.00 | 0.00 | 34 | 1021.1 |
| 20260901144457 | 86 | 145 | 3.0 | 12.0 | 0.00 | 0.00 | 0.00 | 34 | 1021.1 |
| 20260901144248 | 86 | 164 | 3.0 | 12.0 | 0.00 | 0.00 | 0.00 | 34 | 1021.0 |
| 20260901143516 | 86 | 11 | 3.0 | 16.0 | 0.00 | 0.00 | 0.00 | 34 | 1021.1 |
| 20260901143457 | 86 | 11 | 3.0 | 16.0 | 0.00 | 0.00 | 0.00 | 34 | 1021.1 |
| 20260901143015 | 86 | 35 | 3.0 | 16.0 | 0.00 | 0.00 | 0.00 | 34 | 1021.0 |
| 20260901142515 | 85 | 1 | 3.0 | 16.0 | 0.00 | 0.00 | 0.00 | 34 | 1021.0 |
| 20260901142457 | 86 | 1 | 3.0 | 16.0 | 0.00 | 0.00 | 0.00 | 34 | 1021.0 |
| 20260901142016 | 86 | 351 | 3.0 | 16.0 | 0.00 | 0.00 | 0.00 | 34 | 1021.0 |
| 20260901141516 | 87 | 164 | 3.0 | 9.0 | 0.00 | 0.00 | 0.00 | 33 | 1021.1 |
| 20260901141457 | 87 | 172 | 2.0 | 9.0 | 0.00 | 0.00 | 0.00 | 33 | 1021.1 |
| 20260901141016 | 87 | 106 | 3.0 | 9.0 | 0.00 | 0.00 | 0.00 | 33 | 1021.2 |
| 20260901140516 | 86 | 39 | 2.0 | 9.0 | 0.00 | 0.00 | 0.00 | 33 | 1021.1 |
| 20260901140457 | 86 | 30 | 3.0 | 9.0 | 0.00 | 0.00 | 0.00 | 33 | 1021.1 |
| 20260901140016 | 86 | 35 | 2.0 | 9.0 | 0.00 | 0.00 | 0.00 | 33 | 1021.1 |
| 20260901135750 | 86 | 352 | 3.0 | 12.0 | 0.00 | 0.00 | 0.00 | 33 | 1021.2 |
| 20260901135458 | 86 | 358 | 3.0 | 12.0 | 0.00 | 0.00 | 0.00 | 33 | 1021.2 |
| 20260901135025 | 86 | 278 | 3.0 | 13.0 | 0.00 | 0.00 | 0.00 | 33 | 1021.1 |
| 20260901135019 | 86 | 323 | 2.0 | 12.0 | 0.00 | 0.00 | 0.00 | 33 | 1021.1 |
| 20260901134458 | 86 | 269 | 3.0 | 13.0 | 0.00 | 0.00 | 0.00 | 33 | 1021.1 |
| 20260901134015 | 86 | 67 | 3.0 | 13.0 | 0.00 | 0.00 | 0.00 | 33 | 1020.9 |
| 20260901133516 | 86 | 62 | 4.0 | 13.0 | 0.00 | 0.00 | 0.00 | 33 | 1021.1 |
| 20260901133456 | 86 | 62 | 4.0 | 13.0 | 0.00 | 0.00 | 0.00 | 33 | 1021.1 |
| 20260901133018 | 86 | 92 | 3.0 | 13.0 | 0.00 | 0.00 | 0.00 | 33 | 1021.0 |
| 20260901132745 | 87 | 112 | 2.0 | 12.0 | 0.00 | 0.00 | 0.00 | 33 | 1021.0 |
| 20260901132456 | 87 | 121 | 2.0 | 12.0 | 0.00 | 0.00 | 0.00 | 33 | 1021.0 |
| 20260901132011 | 86 | 264 | 3.0 | 12.0 | 0.00 | 0.00 | 0.00 | 33 | 1021.0 |
| 20260901131511 | 86 | 347 | 3.0 | 9.0 | 0.00 | 0.00 | 0.00 | 33 | 1021.0 |
| 20260901131457 | 86 | 349 | 3.0 | 9.0 | 0.00 | 0.00 | 0.00 | 33 | 1021.0 |
| 20260901131244 | 86 | 60 | 4.0 | 8.0 | 0.00 | 0.00 | 0.00 | 33 | 1021.0 |
| 20260901130512 | 86 | 186 | 3.0 | 8.0 | 0.00 | 0.00 | 0.00 | 33 | 1021.0 |
| 20260901130456 | 86 | 195 | 3.0 | 8.0 | 0.00 | 0.00 | 0.00 | 33 | 1021.0 |
| 20260901130011 | 86 | 322 | 2.0 | 8.0 | 0.00 | 0.00 | 0.00 | 33 | 1021.2 |
| 20260901125511 | 87 | 335 | 3.0 | 8.0 | 0.00 | 0.00 | 0.00 | 33 | 1021.1 |
| 20260901125457 | 87 | 340 | 3.0 | 8.0 | 0.00 | 0.00 | 0.00 | 33 | 1021.1 |
| 20260901125009 | 87 | 189 | 3.0 | 8.0 | 0.00 | 0.00 | 0.00 | 33 | 1021.2 |
| 20260901124508 | 87 | 190 | 3.0 | 8.0 | 0.00 | 0.00 | 0.00 | 34 | 1021.2 |
| 20260901124458 | 87 | 191 | 3.0 | 8.0 | 0.00 | 0.00 | 0.00 | 33 | 1021.2 |
| 20260901124008 | 86 | 197 | 3.0 | 10.0 | 0.00 | 0.00 | 0.00 | 33 | 1021.0 |
| 20260901123508 | 86 | 42 | 3.0 | 12.0 | 0.00 | 0.00 | 0.00 | 34 | 1021.1 |
| 20260901123458 | 86 | 28 | 3.0 | 12.0 | 0.00 | 0.00 | 0.00 | 34 | 1021.1 |
| 20260901123007 | 85 | 270 | 3.0 | 12.0 | 0.00 | 0.00 | 0.00 | 34 | 1021.1 |
| 20260901122506 | 85 | 211 | 3.0 | 12.0 | 0.00 | 0.00 | 0.00 | 34 | 1021.0 |
| 20260901122459 | 85 | 209 | 3.0 | 12.0 | 0.00 | 0.00 | 0.00 | 34 | 1021.0 |
| 20260901122006 | 86 | 203 | 3.0 | 12.0 | 0.00 | 0.00 | 0.00 | 33 | 1021.1 |
| 20260901121736 | 85 | 234 | 2.0 | 10.0 | 0.00 | 0.00 | 0.00 | 34 | 1021.0 |
| 20260901121456 | 85 | 233 | 2.0 | 10.0 | 0.00 | 0.00 | 0.00 | 34 | 1021.0 |
| 20260901121003 | 85 | 117 | 2.0 | 12.0 | 0.00 | 0.00 | 0.00 | 34 | 1020.9 |
| 20260901120737 | 85 | 205 | 3.0 | 12.0 | 0.00 | 0.00 | 0.00 | 34 | 1021.1 |
| 20260901120457 | 85 | 211 | 3.0 | 12.0 | 0.00 | 0.00 | 0.00 | 34 | 1021.1 |
| 20260901120005 | 85 | 286 | 4.0 | 12.0 | 0.00 | 0.00 | 0.00 | 36 | 1020.9 |
| 20260901115503 | 84 | 292 | 4.0 | 12.0 | 0.00 | 0.00 | 0.00 | 35 | 1021.0 |
| 20260901115457 | 84 | 289 | 4.0 | 12.0 | 0.00 | 0.00 | 0.00 | 35 | 1021.0 |
| 20260901115004 | 85 | 233 | 3.0 | 12.0 | 0.00 | 0.00 | 0.00 | 35 | 1021.0 |
| 20260901114504 | 85 | 286 | 3.0 | 14.0 | 0.00 | 0.00 | 0.00 | 34 | 1021.1 |
| 20260901114457 | 85 | 295 | 3.0 | 14.0 | 0.00 | 0.00 | 0.00 | 34 | 1021.1 |
| 20260901114005 | 84 | 254 | 4.0 | 14.0 | 0.00 | 0.00 | 0.00 | 35 | 1020.9 |
| 20260901113504 | 83 | 241 | 5.0 | 14.0 | 0.00 | 0.00 | 0.00 | 35 | 1020.9 |
| 20260901113457 | 83 | 241 | 5.0 | 14.0 | 0.00 | 0.00 | 0.00 | 36 | 1020.9 |
| 20260901113004 | 83 | 251 | 4.0 | 14.0 | 0.00 | 0.00 | 0.00 | 34 | 1021.1 |
| 20260901112504 | 83 | 280 | 3.0 | 14.0 | 0.00 | 0.00 | 0.00 | 35 | 1021.1 |
| 20260901112457 | 83 | 279 | 3.0 | 14.0 | 0.00 | 0.00 | 0.00 | 35 | 1021.1 |
| 20260901112004 | 82 | 259 | 4.0 | 14.0 | 0.00 | 0.00 | 0.00 | 36 | 1020.9 |
| 20260901111504 | 82 | 239 | 5.0 | 14.0 | 0.00 | 0.00 | 0.00 | 36 | 1021.0 |
| 20260901111457 | 82 | 237 | 4.0 | 14.0 | 0.00 | 0.00 | 0.00 | 36 | 1021.0 |
| 20260901111004 | 82 | 198 | 5.0 | 14.0 | 0.00 | 0.00 | 0.00 | 35 | 1021.2 |
| 20260901110503 | 82 | 213 | 5.0 | 11.0 | 0.00 | 0.00 | 0.00 | 36 | 1021.2 |
| 20260901110457 | 82 | 212 | 5.0 | 11.0 | 0.00 | 0.00 | 0.00 | 36 | 1021.2 |
| 20260901110003 | 82 | 263 | 5.0 | 11.0 | 0.00 | 0.00 | 0.00 | 37 | 1021.2 |
| 20260901105504 | 81 | 287 | 5.0 | 11.0 | 0.00 | 0.00 | 0.00 | 37 | 1021.2 |
| 20260901105457 | 81 | 287 | 5.0 | 11.0 | 0.00 | 0.00 | 0.00 | 37 | 1021.2 |
| 20260901105002 | 82 | 295 | 4.0 | 11.0 | 0.00 | 0.00 | 0.00 | 36 | 1021.2 |
| 20260901104508 | 82 | 277 | 4.0 | 10.0 | 0.00 | 0.00 | 0.00 | 36 | 1021.5 |
| 20260901104459 | 82 | 277 | 4.0 | 10.0 | 0.00 | 0.00 | 0.00 | 36 | 1021.5 |
| 20260901104002 | 82 | 259 | 4.0 | 14.0 | 0.00 | 0.00 | 0.00 | 36 | 1021.1 |
| 20260901103503 | 82 | 256 | 5.0 | 14.0 | 0.00 | 0.00 | 0.00 | 35 | 1021.4 |
| 20260901103458 | 82 | 258 | 5.0 | 14.0 | 0.00 | 0.00 | 0.00 | 35 | 1021.4 |
| 20260901103002 | 81 | 262 | 5.0 | 14.0 | 0.00 | 0.00 | 0.00 | 34 | 1021.3 |
| 20260901102502 | 81 | 265 | 4.0 | 14.0 | 0.00 | 0.00 | 0.00 | 34 | 1021.4 |
| 20260901102456 | 81 | 265 | 4.0 | 14.0 | 0.00 | 0.00 | 0.00 | 34 | 1021.4 |
| 20260901102002 | 81 | 239 | 4.0 | 12.0 | 0.00 | 0.00 | 0.00 | 33 | 1021.5 |
| 20260901101502 | 82 | 240 | 3.0 | 13.0 | 0.00 | 0.00 | 0.00 | 32 | 1021.5 |
| 20260901101458 | 82 | 239 | 3.0 | 13.0 | 0.00 | 0.00 | 0.00 | 32 | 1021.5 |
| 20260901101002 | 82 | 238 | 3.0 | 13.0 | 0.00 | 0.00 | 0.00 | 30 | 1021.3 |
| 20260901100502 | 82 | 234 | 3.0 | 13.0 | 0.00 | 0.00 | 0.00 | 30 | 1021.6 |
| 20260901100457 | 82 | 234 | 3.0 | 13.0 | 0.00 | 0.00 | 0.00 | 30 | 1021.6 |
| 20260901100001 | 81 | 318 | 3.0 | 13.0 | 0.00 | 0.00 | 0.00 | 31 | 1021.5 |
| 20260901095514 | 80 | 89 | 2.0 | 9.0 | 0.00 | 0.00 | 0.00 | 31 | 1021.5 |
| 20260901095508 | 81 | 0 | 3.0 | 9.0 | 0.00 | 0.00 | 0.00 | 31 | 1021.6 |
| 20260901095503 | 81 | 5 | 3.0 | 9.0 | 0.00 | 0.00 | 0.00 | 31 | 1021.6 |
| 20260901094500 | 80 | 68 | 2.0 | 9.0 | 0.00 | 0.00 | 0.00 | 31 | 1021.5 |
| 20260901094456 | 80 | 67 | 2.0 | 9.0 | 0.00 | 0.00 | 0.00 | 31 | 1021.5 |
| 20260901094001 | 80 | 65 | 2.0 | 6.0 | 0.00 | 0.00 | 0.00 | 30 | 1021.4 |
| 20260901093501 | 80 | 87 | 2.0 | 6.0 | 0.00 | 0.00 | 0.00 | 30 | 1021.5 |
| 20260901093457 | 80 | 87 | 2.0 | 6.0 | 0.00 | 0.00 | 0.00 | 30 | 1021.5 |
| 20260901093004 | 81 | 191 | 1.0 | 5.0 | 0.00 | 0.00 | 0.00 | 30 | 1021.7 |
| 20260901092501 | 81 | 212 | 1.0 | 4.0 | 0.00 | 0.00 | 0.00 | 27 | 1021.6 |
| 20260901092457 | 81 | 212 | 1.0 | 4.0 | 0.00 | 0.00 | 0.00 | 27 | 1021.6 |
| 20260901091959 | 81 | 199 | 1.0 | 4.0 | 0.00 | 0.00 | 0.00 | 26 | 1021.5 |
| 20260901091457 | 80 | 224 | 1.0 | 4.0 | 0.00 | 0.00 | 0.00 | 26 | 1021.6 |
| 20260901090957 | 80 | 238 | 1.0 | 4.0 | 0.00 | 0.00 | 0.00 | 26 | 1021.6 |
| 20260901090458 | 79 | 233 | 2.0 | 4.0 | 0.00 | 0.00 | 0.00 | 26 | 1021.6 |
| 20260901085958 | 79 | 238 | 1.0 | 4.0 | 0.00 | 0.00 | 0.00 | 26 | 1021.5 |
| 20260901085458 | 78 | 239 | 1.0 | 4.0 | 0.00 | 0.00 | 0.00 | 26 | 1021.5 |
| 20260901084956 | 79 | 240 | 1.0 | 4.0 | 0.00 | 0.00 | 0.00 | 26 | 1021.5 |
| 20260901084458 | 78 | 249 | 1.0 | 3.0 | 0.00 | 0.00 | 0.00 | 27 | 1021.4 |
| 20260901083956 | 78 | 244 | 1.0 | 4.0 | 0.00 | 0.00 | 0.00 | 27 | 1021.5 |
| 20260901083457 | 77 | 234 | 1.0 | 4.0 | 0.00 | 0.00 | 0.00 | 28 | 1021.5 |
| 20260901082956 | 77 | 233 | 2.0 | 5.0 | 0.00 | 0.00 | 0.00 | 28 | 1021.5 |
| 20260901082458 | 76 | 231 | 2.0 | 6.0 | 0.00 | 0.00 | 0.00 | 28 | 1021.4 |
| 20260901081956 | 76 | 227 | 2.0 | 6.0 | 0.00 | 0.00 | 0.00 | 29 | 1021.4 |
| 20260901081459 | 75 | 230 | 3.0 | 6.0 | 0.00 | 0.00 | 0.00 | 31 | 1021.3 |
| 20260901080956 | 75 | 233 | 3.0 | 7.0 | 0.00 | 0.00 | 0.00 | 32 | 1021.3 |
| 20260901080457 | 74 | 232 | 3.0 | 7.0 | 0.00 | 0.00 | 0.00 | 33 | 1021.2 |
| 20260901075956 | 74 | 228 | 3.0 | 7.0 | 0.00 | 0.00 | 0.00 | 33 | 1021.2 |
| 20260901075457 | 74 | 230 | 3.0 | 7.0 | 0.00 | 0.00 | 0.00 | 32 | 1021.1 |
| 20260901074957 | 73 | 231 | 3.0 | 9.0 | 0.00 | 0.00 | 0.00 | 33 | 1021.2 |
| 20260901074457 | 73 | 234 | 4.0 | 10.0 | 0.00 | 0.00 | 0.00 | 33 | 1021.1 |
| 20260901074224 | 72 | 240 | 4.0 | 10.0 | 0.00 | 0.00 | 0.00 | 34 | 1021.1 |
| 20260901073458 | 72 | 240 | 4.0 | 10.0 | 0.00 | 0.00 | 0.00 | 33 | 1021.2 |
| 20260901073229 | 71 | 236 | 4.0 | 10.0 | 0.00 | 0.00 | 0.00 | 34 | 1021.0 |
| 20260901072457 | 71 | 233 | 4.0 | 8.0 | 0.00 | 0.00 | 0.00 | 36 | 1021.0 |
| 20260901072231 | 71 | 241 | 4.0 | 8.0 | 0.00 | 0.00 | 0.00 | 36 | 1020.9 |
| 20260901071457 | 71 | 245 | 4.0 | 8.0 | 0.00 | 0.00 | 0.00 | 36 | 1021.1 |
| 20260901070958 | 70 | 240 | 4.0 | 8.0 | 0.00 | 0.00 | 0.00 | 36 | 1021.0 |
| 20260901070458 | 70 | 242 | 4.0 | 7.0 | 0.00 | 0.00 | 0.00 | 38 | 1021.0 |
| 20260901065951 | 69 | 243 | 3.0 | 7.0 | 0.00 | 0.00 | 0.00 | 37 | 1021.0 |
| 20260901065452 | 69 | 239 | 3.0 | 6.0 | 0.00 | 0.00 | 0.00 | 38 | 1021.0 |
| 20260901064954 | 69 | 243 | 3.0 | 6.0 | 0.00 | 0.00 | 0.00 | 39 | 1021.0 |
| 20260901064452 | 69 | 245 | 3.0 | 7.0 | 0.00 | 0.00 | 0.00 | 38 | 1020.9 |
| 20260901064225 | 69 | 248 | 3.0 | 8.0 | 0.00 | 0.00 | 0.00 | 37 | 1021.0 |
| 20260901063452 | 68 | 240 | 3.0 | 8.0 | 0.00 | 0.00 | 0.00 | 37 | 1021.1 |
| 20260901062951 | 68 | 235 | 4.0 | 8.0 | 0.00 | 0.00 | 0.00 | 36 | 1021.0 |
| 20260901062451 | 68 | 250 | 3.0 | 8.0 | 0.00 | 0.00 | 0.00 | 36 | 1021.0 |
| 20260901061951 | 68 | 248 | 3.0 | 10.0 | 0.00 | 0.00 | 0.00 | 37 | 1020.9 |
| 20260901061451 | 68 | 242 | 4.0 | 10.0 | 0.00 | 0.00 | 0.00 | 37 | 1020.9 |
| 20260901061221 | 68 | 250 | 4.0 | 10.0 | 0.00 | 0.00 | 0.00 | 36 | 1020.8 |
| 20260901060451 | 68 | 264 | 3.0 | 10.0 | 0.00 | 0.00 | 0.00 | 36 | 1020.9 |
| 20260901055950 | 67 | 265 | 2.0 | 6.0 | 0.00 | 0.00 | 0.00 | 37 | 1020.7 |
| 20260901055451 | 67 | 277 | 2.0 | 6.0 | 0.00 | 0.00 | 0.00 | 38 | 1020.7 |
| 20260901054951 | 67 | 292 | 2.0 | 6.0 | 0.00 | 0.00 | 0.00 | 38 | 1020.6 |
| 20260901054451 | 67 | 289 | 1.0 | 8.0 | 0.00 | 0.00 | 0.00 | 38 | 1020.6 |
| 20260901053950 | 67 | 272 | 1.0 | 8.0 | 0.00 | 0.00 | 0.00 | 39 | 1020.6 |
| 20260901053451 | 67 | 249 | 3.0 | 8.0 | 0.00 | 0.00 | 0.00 | 38 | 1020.4 |
| 20260901053219 | 67 | 236 | 4.0 | 12.0 | 0.00 | 0.00 | 0.00 | 37 | 1020.3 |
| 20260901052456 | 67 | 240 | 3.0 | 14.0 | 0.00 | 0.00 | 0.00 | 37 | 1020.2 |
| 20260901052448 | 67 | 240 | 2.0 | 14.0 | 0.00 | 0.00 | 0.00 | 37 | 1020.2 |
| 20260901051947 | 67 | 244 | 3.0 | 14.0 | 0.00 | 0.00 | 0.00 | 37 | 1020.1 |
| 20260901051456 | 68 | 232 | 5.0 | 14.0 | 0.00 | 0.00 | 0.00 | 37 | 1020.3 |
| 20260901051447 | 68 | 231 | 5.0 | 14.0 | 0.00 | 0.00 | 0.00 | 37 | 1020.3 |
| 20260901050947 | 68 | 226 | 6.0 | 14.0 | 0.00 | 0.00 | 0.00 | 36 | 1020.1 |
| 20260901050457 | 68 | 238 | 6.0 | 12.0 | 0.00 | 0.00 | 0.00 | 36 | 1020.2 |
| 20260901050447 | 68 | 239 | 6.0 | 12.0 | 0.00 | 0.00 | 0.00 | 36 | 1020.2 |
| 20260901045947 | 68 | 246 | 4.0 | 10.0 | 0.00 | 0.00 | 0.00 | 36 | 1020.1 |
| 20260901045446 | 68 | 260 | 4.0 | 10.0 | 0.00 | 0.00 | 0.00 | 36 | 1020.1 |
| 20260901044946 | 68 | 273 | 4.0 | 10.0 | 0.00 | 0.00 | 0.00 | 37 | 1020.0 |
| 20260901044457 | 69 | 291 | 4.0 | 10.0 | 0.00 | 0.00 | 0.00 | 36 | 1020.0 |
| 20260901044446 | 69 | 292 | 3.0 | 10.0 | 0.00 | 0.00 | 0.00 | 36 | 1020.0 |
| 20260901043946 | 69 | 300 | 3.0 | 13.0 | 0.00 | 0.00 | 0.00 | 36 | 1019.8 |
| 20260901043705 | 69 | 279 | 3.0 | 13.0 | 0.00 | 0.00 | 0.00 | 36 | 1020.0 |
| 20260901042942 | 69 | 270 | 3.0 | 13.0 | 0.00 | 0.00 | 0.00 | 36 | 1020.0 |
| 20260901042721 | 69 | 265 | 4.0 | 13.0 | 0.00 | 0.00 | 0.00 | 35 | 1019.9 |
| 20260901042700 | 69 | 266 | 4.0 | 13.0 | 0.00 | 0.00 | 0.00 | 35 | 1019.9 |
| 20260901041941 | 70 | 274 | 5.0 | 12.0 | 0.00 | 0.00 | 0.00 | 35 | 1019.8 |
| 20260901041442 | 70 | 275 | 4.0 | 12.0 | 0.00 | 0.00 | 0.00 | 35 | 1019.8 |
| 20260901040943 | 70 | 274 | 3.0 | 21.0 | 0.00 | 0.00 | 0.00 | 35 | 1019.7 |
| 20260901040457 | 70 | 280 | 3.0 | 21.0 | 0.00 | 0.00 | 0.00 | 34 | 1019.7 |
| 20260901040442 | 70 | 281 | 3.0 | 21.0 | 0.00 | 0.00 | 0.00 | 34 | 1019.7 |
| 20260901040216 | 70 | 284 | 5.0 | 21.0 | 0.00 | 0.00 | 0.00 | 35 | 1019.6 |
| 20260901035441 | 70 | 281 | 6.0 | 21.0 | 0.00 | 0.00 | 0.00 | 35 | 1019.6 |
| 20260901034941 | 70 | 281 | 6.0 | 20.0 | 0.00 | 0.00 | 0.00 | 34 | 1019.7 |
| 20260901034717 | 70 | 281 | 8.0 | 20.0 | 0.00 | 0.00 | 0.00 | 34 | 1019.5 |
| 20260901034658 | 70 | 280 | 8.0 | 20.0 | 0.00 | 0.00 | 0.00 | 34 | 1019.5 |
| 20260901033942 | 70 | 289 | 8.0 | 20.0 | 0.00 | 0.00 | 0.00 | 35 | 1019.5 |
| 20260901033441 | 71 | 296 | 6.0 | 18.0 | 0.00 | 0.00 | 0.00 | 35 | 1019.9 |
| 20260901032940 | 71 | 286 | 7.0 | 15.0 | 0.00 | 0.00 | 0.00 | 35 | 1019.7 |
| 20260901032457 | 71 | 279 | 7.0 | 15.0 | 0.00 | 0.00 | 0.00 | 35 | 1019.6 |
| 20260901032440 | 71 | 278 | 7.0 | 15.0 | 0.00 | 0.00 | 0.00 | 35 | 1019.6 |
| 20260901031940 | 71 | 282 | 6.0 | 15.0 | 0.00 | 0.00 | 0.00 | 34 | 1019.6 |
| 20260901031459 | 71 | 286 | 6.0 | 16.0 | 0.00 | 0.00 | 0.00 | 35 | 1019.6 |
| 20260901031439 | 71 | 285 | 6.0 | 17.0 | 0.00 | 0.00 | 0.00 | 35 | 1019.6 |
| 20260901030940 | 71 | 286 | 6.0 | 19.0 | 0.00 | 0.00 | 0.00 | 35 | 1019.5 |
| 20260901030457 | 71 | 280 | 6.0 | 19.0 | 0.00 | 0.00 | 0.00 | 35 | 1019.8 |
| 20260901030441 | 71 | 281 | 7.0 | 19.0 | 0.00 | 0.00 | 0.00 | 35 | 1019.8 |
| 20260901025937 | 71 | 280 | 6.0 | 19.0 | 0.00 | 0.00 | 0.00 | 35 | 1019.7 |
| 20260901025457 | 71 | 287 | 5.0 | 19.0 | 0.00 | 0.00 | 0.00 | 35 | 1019.7 |
| 20260901025437 | 71 | 286 | 5.0 | 19.0 | 0.00 | 0.00 | 0.00 | 35 | 1019.7 |
| 20260901024936 | 71 | 291 | 5.0 | 17.0 | 0.00 | 0.00 | 0.00 | 35 | 1019.7 |
| 20260901024457 | 71 | 285 | 5.0 | 16.0 | 0.00 | 0.00 | 0.00 | 34 | 1019.7 |
| 20260901024436 | 71 | 284 | 5.0 | 16.0 | 0.00 | 0.00 | 0.00 | 34 | 1019.7 |
| 20260901023936 | 71 | 275 | 5.0 | 16.0 | 0.00 | 0.00 | 0.00 | 34 | 1019.7 |
| 20260901023457 | 71 | 279 | 5.0 | 16.0 | 0.00 | 0.00 | 0.00 | 35 | 1020.0 |
| 20260901023436 | 71 | 279 | 5.0 | 16.0 | 0.00 | 0.00 | 0.00 | 35 | 1019.9 |
| 20260901022936 | 71 | 286 | 6.0 | 16.0 | 0.00 | 0.00 | 0.00 | 35 | 1020.0 |
| 20260901022435 | 71 | 282 | 5.0 | 13.0 | 0.00 | 0.00 | 0.00 | 35 | 1019.9 |
| 20260901021936 | 71 | 281 | 5.0 | 13.0 | 0.00 | 0.00 | 0.00 | 35 | 1020.2 |
| 20260901021457 | 71 | 280 | 6.0 | 13.0 | 0.00 | 0.00 | 0.00 | 35 | 1020.1 |
| 20260901021436 | 71 | 279 | 6.0 | 13.0 | 0.00 | 0.00 | 0.00 | 35 | 1020.1 |
| 20260901020937 | 71 | 276 | 5.0 | 13.0 | 0.00 | 0.00 | 0.00 | 35 | 1020.2 |
| 20260901020457 | 71 | 285 | 5.0 | 13.0 | 0.00 | 0.00 | 0.00 | 35 | 1020.2 |
| 20260901020438 | 71 | 286 | 5.0 | 13.0 | 0.00 | 0.00 | 0.00 | 35 | 1020.2 |
| 20260901015938 | 71 | 288 | 5.0 | 13.0 | 0.00 | 0.00 | 0.00 | 35 | 1020.3 |
| 20260901015457 | 71 | 283 | 5.0 | 13.0 | 0.00 | 0.00 | 0.00 | 35 | 1020.3 |
| 20260901015439 | 71 | 281 | 5.0 | 13.0 | 0.00 | 0.00 | 0.00 | 35 | 1020.3 |
| 20260901015209 | 71 | 285 | 5.0 | 12.0 | 0.00 | 0.00 | 0.00 | 35 | 1020.3 |
| 20260901014711 | 71 | 282 | 5.0 | 14.0 | 0.00 | 0.00 | 0.00 | 35 | 1020.3 |
| 20260901014654 | 71 | 281 | 5.0 | 14.0 | 0.00 | 0.00 | 0.00 | 35 | 1020.3 |
| 20260901013938 | 71 | 282 | 4.0 | 14.0 | 0.00 | 0.00 | 0.00 | 35 | 1020.9 |
| 20260901013437 | 71 | 277 | 5.0 | 14.0 | 0.00 | 0.00 | 0.00 | 35 | 1020.9 |
| 20260901012934 | 71 | 270 | 5.0 | 14.0 | 0.00 | 0.00 | 0.00 | 35 | 1020.9 |
| 20260901012433 | 71 | 283 | 4.0 | 13.0 | 0.00 | 0.00 | 0.00 | 35 | 1020.9 |
| 20260901011934 | 71 | 294 | 3.0 | 9.0 | 0.00 | 0.00 | 0.00 | 36 | 1020.8 |
| 20260901011433 | 71 | 289 | 3.0 | 9.0 | 0.00 | 0.00 | 0.00 | 36 | 1020.9 |
| 20260901010934 | 71 | 286 | 3.0 | 13.0 | 0.00 | 0.00 | 0.00 | 36 | 1021.0 |
| 20260901010457 | 71 | 285 | 3.0 | 13.0 | 0.00 | 0.00 | 0.00 | 36 | 1020.9 |
| 20260901010433 | 71 | 285 | 3.0 | 13.0 | 0.00 | 0.00 | 0.00 | 36 | 1020.8 |
| 20260901005933 | 71 | 282 | 4.0 | 13.0 | 0.00 | 0.00 | 0.00 | 36 | 1020.9 |
| 20260901005457 | 71 | 278 | 4.0 | 13.0 | 0.00 | 0.00 | 0.00 | 36 | 1021.1 |
| 20260901005434 | 71 | 277 | 4.0 | 13.0 | 0.00 | 0.00 | 0.00 | 36 | 1021.1 |
| 20260901004934 | 71 | 277 | 5.0 | 14.0 | 0.00 | 0.00 | 0.00 | 36 | 1021.2 |
| 20260901004434 | 71 | 274 | 4.0 | 14.0 | 0.00 | 0.00 | 0.00 | 36 | 1021.1 |
| 20260901003934 | 71 | 271 | 5.0 | 14.0 | 0.00 | 0.00 | 0.00 | 36 | 1021.2 |
| 20260901003457 | 72 | 266 | 6.0 | 14.0 | 0.00 | 0.00 | 0.00 | 35 | 1021.3 |
| 20260901003435 | 72 | 265 | 6.0 | 14.0 | 0.00 | 0.00 | 0.00 | 35 | 1021.3 |
| 20260901002934 | 72 | 258 | 6.0 | 14.0 | 0.00 | 0.00 | 0.00 | 35 | 1021.2 |
| 20260901002453 | 72 | 264 | 5.0 | 12.0 | 0.00 | 0.00 | 0.00 | 36 | 1021.1 |
| 20260901002433 | 72 | 265 | 5.0 | 12.0 | 0.00 | 0.00 | 0.00 | 36 | 1021.1 |
| 20260901002215 | 73 | 274 | 5.0 | 12.0 | 0.00 | 0.00 | 0.00 | 35 | 1021.3 |
| 20260901002210 | 73 | 260 | 6.0 | 12.0 | 0.00 | 0.00 | 0.00 | 35 | 1021.3 |
| 20260901001653 | 73 | 261 | 6.0 | 12.0 | 0.00 | 0.00 | 0.00 | 35 | 1021.3 |
| 20260901000930 | 74 | 251 | 6.0 | 13.0 | 0.00 | 0.00 | 0.00 | 35 | 1021.4 |
| 20260901000646 | 73 | 262 | 5.0 | 19.0 | 0.00 | 0.00 | 0.00 | 36 | 1021.4 |
| 20260901000204 | 73 | 254 | 6.0 | 19.0 | 0.00 | 0.00 | 0.00 | 35 | 1021.3 |
| 20260831235453 | 74 | 240 | 8.0 | 19.0 | 0.00 | 0.00 | 0.00 | 34 | 1021.4 |
| 20260831235430 | 74 | 239 | 8.0 | 19.0 | 0.00 | 0.00 | 0.00 | 34 | 1021.4 |
| 20260831235202 | 74 | 229 | 8.0 | 19.0 | 0.00 | 0.00 | 0.00 | 34 | 1021.2 |
| 20260831234704 | 74 | 232 | 7.0 | 16.0 | 0.00 | 0.00 | 0.00 | 35 | 1021.4 |
| 20260831234646 | 74 | 231 | 7.0 | 16.0 | 0.00 | 0.00 | 0.00 | 35 | 1021.4 |
| 20260831233928 | 73 | 240 | 6.0 | 12.0 | 0.00 | 0.00 | 0.00 | 36 | 1021.5 |
| 20260831233454 | 73 | 242 | 6.0 | 12.0 | 0.00 | 0.00 | 0.00 | 36 | 1021.4 |
| 20260831233427 | 73 | 243 | 6.0 | 12.0 | 0.00 | 0.00 | 0.00 | 36 | 1021.4 |
| 20260831232921 | 73 | 257 | 5.0 | 13.0 | 0.00 | 0.00 | 0.00 | 36 | 1021.4 |
| 20260831232453 | 74 | 253 | 6.0 | 13.0 | 0.00 | 0.00 | 0.00 | 35 | 1021.7 |
| 20260831232422 | 74 | 251 | 6.0 | 13.0 | 0.00 | 0.00 | 0.00 | 35 | 1021.7 |
| 20260831231922 | 74 | 246 | 6.0 | 17.0 | 0.00 | 0.00 | 0.00 | 35 | 1021.5 |
| 20260831231453 | 74 | 253 | 6.0 | 17.0 | 0.00 | 0.00 | 0.00 | 34 | 1021.5 |
| 20260831231422 | 74 | 251 | 6.0 | 17.0 | 0.00 | 0.00 | 0.00 | 34 | 1021.5 |
| 20260831230921 | 75 | 240 | 6.0 | 17.0 | 0.00 | 0.00 | 0.00 | 34 | 1021.6 |
| 20260831230452 | 75 | 233 | 7.0 | 17.0 | 0.00 | 0.00 | 0.00 | 33 | 1021.6 |
| 20260831230422 | 75 | 234 | 7.0 | 17.0 | 0.00 | 0.00 | 0.00 | 33 | 1021.6 |
| 20260831225922 | 75 | 241 | 7.0 | 17.0 | 0.00 | 0.00 | 0.00 | 34 | 1021.6 |
| 20260831225453 | 75 | 241 | 7.0 | 20.0 | 0.00 | 0.00 | 0.00 | 34 | 1021.6 |
| 20260831225421 | 76 | 240 | 7.0 | 20.0 | 0.00 | 0.00 | 0.00 | 33 | 1021.6 |
| 20260831224921 | 76 | 231 | 7.0 | 20.0 | 0.00 | 0.00 | 0.00 | 33 | 1021.5 |
| 20260831224638 | 76 | 229 | 8.0 | 20.0 | 0.00 | 0.00 | 0.00 | 33 | 1021.5 |
| 20260831223921 | 76 | 233 | 8.0 | 20.0 | 0.00 | 0.00 | 0.00 | 33 | 1021.4 |
| 20260831223452 | 76 | 240 | 7.0 | 17.0 | 0.00 | 0.00 | 0.00 | 34 | 1021.5 |
| 20260831223421 | 76 | 241 | 8.0 | 17.0 | 0.00 | 0.00 | 0.00 | 34 | 1021.4 |
| 20260831222920 | 76 | 248 | 8.0 | 17.0 | 0.00 | 0.00 | 0.00 | 34 | 1021.3 |
| 20260831222452 | 76 | 241 | 8.0 | 17.0 | 0.00 | 0.00 | 0.00 | 34 | 1021.4 |
| 20260831222419 | 76 | 240 | 8.0 | 17.0 | 0.00 | 0.00 | 0.00 | 34 | 1021.4 |
| 20260831221919 | 76 | 232 | 9.0 | 17.0 | 0.00 | 0.00 | 0.00 | 33 | 1021.5 |
| 20260831221453 | 76 | 236 | 8.0 | 17.0 | 0.00 | 0.00 | 0.00 | 33 | 1021.4 |
| 20260831221420 | 76 | 237 | 8.0 | 17.0 | 0.00 | 0.00 | 0.00 | 33 | 1021.4 |
| 20260831220919 | 76 | 232 | 8.0 | 20.0 | 0.00 | 0.00 | 0.00 | 34 | 1021.5 |
| 20260831220705 | 76 | 238 | 7.0 | 20.0 | 0.00 | 0.00 | 0.00 | 33 | 1021.2 |
| 20260831220642 | 76 | 238 | 7.0 | 20.0 | 0.00 | 0.00 | 0.00 | 33 | 1021.4 |
| 20260831215917 | 76 | 234 | 8.0 | 20.0 | 0.00 | 0.00 | 0.00 | 33 | 1021.4 |
| 20260831215452 | 76 | 223 | 9.0 | 20.0 | 0.00 | 0.00 | 0.00 | 33 | 1021.4 |
| 20260831215416 | 77 | 223 | 9.0 | 20.0 | 0.00 | 0.00 | 0.00 | 33 | 1021.6 |
| 20260831214917 | 77 | 228 | 8.0 | 16.0 | 0.00 | 0.00 | 0.00 | 34 | 1021.6 |
| 20260831214655 | 77 | 248 | 6.0 | 16.0 | 0.00 | 0.00 | 0.00 | 33 | 1021.3 |
| 20260831214637 | 77 | 247 | 6.0 | 16.0 | 0.00 | 0.00 | 0.00 | 34 | 1021.3 |
| 20260831213917 | 77 | 258 | 6.0 | 15.0 | 0.00 | 0.00 | 0.00 | 33 | 1021.1 |
| 20260831213657 | 77 | 245 | 6.0 | 15.0 | 0.00 | 0.00 | 0.00 | 34 | 1021.1 |
| 20260831213639 | 77 | 247 | 6.0 | 15.0 | 0.00 | 0.00 | 0.00 | 34 | 1021.2 |
| 20260831212917 | 77 | 234 | 7.0 | 18.0 | 0.00 | 0.00 | 0.00 | 33 | 1021.1 |
| 20260831212452 | 77 | 233 | 8.0 | 18.0 | 0.00 | 0.00 | 0.00 | 33 | 1021.2 |
| 20260831212416 | 77 | 234 | 8.0 | 18.0 | 0.00 | 0.00 | 0.00 | 33 | 1021.2 |
| 20260831211916 | 77 | 236 | 8.0 | 18.0 | 0.00 | 0.00 | 0.00 | 33 | 1021.2 |
| 20260831211452 | 77 | 231 | 8.0 | 18.0 | 0.00 | 0.00 | 0.00 | 33 | 1021.1 |
| 20260831211415 | 77 | 230 | 9.0 | 18.0 | 0.00 | 0.00 | 0.00 | 33 | 1021.1 |
| 20260831210915 | 77 | 222 | 9.0 | 18.0 | 0.00 | 0.00 | 0.00 | 33 | 1021.1 |
| 20260831210451 | 78 | 227 | 8.0 | 17.0 | 0.00 | 0.00 | 0.00 | 33 | 1021.1 |
| 20260831210416 | 78 | 226 | 8.0 | 17.0 | 0.00 | 0.00 | 0.00 | 33 | 1021.0 |
| 20260831205916 | 78 | 229 | 9.0 | 18.0 | 0.00 | 0.00 | 0.00 | 33 | 1020.9 |
| 20260831205452 | 78 | 225 | 9.0 | 18.0 | 0.00 | 0.00 | 0.00 | 32 | 1020.6 |
| 20260831205416 | 78 | 226 | 9.0 | 18.0 | 0.00 | 0.00 | 0.00 | 32 | 1020.6 |
| 20260831204916 | 78 | 240 | 9.0 | 18.0 | 0.00 | 0.00 | 0.00 | 32 | 1020.7 |
| 20260831204453 | 78 | 252 | 6.0 | 18.0 | 0.00 | 0.00 | 0.00 | 32 | 1020.6 |
| 20260831204416 | 78 | 249 | 6.0 | 18.0 | 0.00 | 0.00 | 0.00 | 32 | 1020.6 |
| 20260831203915 | 78 | 248 | 5.0 | 14.0 | 0.00 | 0.00 | 0.00 | 32 | 1020.4 |
| 20260831203652 | 78 | 252 | 6.0 | 15.0 | 0.00 | 0.00 | 0.00 | 30 | 1020.8 |
| 20260831203634 | 78 | 247 | 6.0 | 15.0 | 0.00 | 0.00 | 0.00 | 31 | 1020.7 |
| 20260831202918 | 78 | 274 | 5.0 | 15.0 | 0.00 | 0.00 | 0.00 | 30 | 1020.4 |
| 20260831202655 | 78 | 287 | 5.0 | 16.0 | 0.00 | 0.00 | 0.00 | 32 | 1020.3 |
| 20260831202635 | 78 | 293 | 5.0 | 16.0 | 0.00 | 0.00 | 0.00 | 32 | 1020.3 |
| 20260831201920 | 78 | 256 | 5.0 | 16.0 | 0.00 | 0.00 | 0.00 | 31 | 1020.2 |
| 20260831201449 | 78 | 253 | 5.0 | 16.0 | 0.00 | 0.00 | 0.00 | 32 | 1020.0 |
| 20260831201417 | 78 | 252 | 4.0 | 16.0 | 0.00 | 0.00 | 0.00 | 32 | 1020.0 |
| 20260831201150 | 78 | 312 | 4.0 | 16.0 | 0.00 | 0.00 | 0.00 | 32 | 1020.1 |
| 20260831200446 | 79 | 306 | 5.0 | 14.0 | 0.00 | 0.00 | 0.00 | 32 | 1020.2 |
| 20260831200416 | 79 | 311 | 5.0 | 14.0 | 0.00 | 0.00 | 0.00 | 32 | 1020.2 |
| 20260831195917 | 79 | 288 | 5.0 | 15.0 | 0.00 | 0.00 | 0.00 | 32 | 1020.0 |
| 20260831195447 | 79 | 332 | 4.0 | 19.0 | 0.00 | 0.00 | 0.00 | 32 | 1020.1 |
| 20260831195415 | 79 | 327 | 4.0 | 19.0 | 0.00 | 0.00 | 0.00 | 32 | 1020.1 |
| 20260831194916 | 79 | 308 | 4.0 | 19.0 | 0.00 | 0.00 | 0.00 | 32 | 1020.0 |
| 20260831194448 | 79 | 257 | 6.0 | 19.0 | 0.00 | 0.00 | 0.00 | 32 | 1020.0 |
| 20260831194415 | 79 | 257 | 6.0 | 19.0 | 0.00 | 0.00 | 0.00 | 31 | 1020.0 |
| 20260831193915 | 80 | 245 | 7.0 | 19.0 | 0.00 | 0.00 | 0.00 | 31 | 1019.9 |
| 20260831193447 | 80 | 232 | 6.0 | 16.0 | 0.00 | 0.00 | 0.00 | 31 | 1019.8 |
| 20260831193415 | 80 | 227 | 6.0 | 16.0 | 0.00 | 0.00 | 0.00 | 31 | 1019.8 |
| 20260831192916 | 80 | 203 | 5.0 | 18.0 | 0.00 | 0.00 | 0.00 | 31 | 1019.7 |
| 20260831192447 | 80 | 211 | 5.0 | 18.0 | 0.00 | 0.00 | 0.00 | 30 | 1019.8 |
| 20260831192416 | 80 | 209 | 5.0 | 18.0 | 0.00 | 0.00 | 0.00 | 30 | 1019.8 |
| 20260831191916 | 80 | 244 | 7.0 | 18.0 | 0.00 | 0.00 | 0.00 | 31 | 1019.6 |
| 20260831191448 | 80 | 255 | 7.0 | 18.0 | 0.00 | 0.00 | 0.00 | 30 | 1019.7 |
| 20260831191416 | 80 | 259 | 7.0 | 18.0 | 0.00 | 0.00 | 0.00 | 30 | 1019.7 |
| 20260831191148 | 81 | 285 | 5.0 | 15.0 | 0.00 | 0.00 | 0.00 | 30 | 1019.6 |
| 20260831190445 | 81 | 267 | 6.0 | 15.0 | 0.00 | 0.00 | 0.00 | 29 | 1019.5 |
| 20260831190419 | 81 | 265 | 6.0 | 15.0 | 0.00 | 0.00 | 0.00 | 29 | 1019.5 |
| 20260831185917 | 81 | 264 | 6.0 | 15.0 | 0.00 | 0.00 | 0.00 | 29 | 1019.3 |
| 20260831185651 | 81 | 263 | 6.0 | 15.0 | 0.00 | 0.00 | 0.00 | 29 | 1019.4 |
| 20260831185632 | 81 | 264 | 6.0 | 15.0 | 0.00 | 0.00 | 0.00 | 29 | 1019.4 |
| 20260831184916 | 81 | 255 | 6.0 | 15.0 | 0.00 | 0.00 | 0.00 | 29 | 1019.2 |
| 20260831184652 | 82 | 257 | 5.0 | 14.0 | 0.00 | 0.00 | 0.00 | 29 | 1019.1 |
| 20260831184634 | 82 | 259 | 4.0 | 14.0 | 0.00 | 0.00 | 0.00 | 29 | 1019.1 |
| 20260831183916 | 82 | 229 | 4.0 | 14.0 | 0.00 | 0.00 | 0.00 | 28 | 1018.9 |
| 20260831183416 | 82 | 260 | 4.0 | 14.0 | 0.00 | 0.00 | 0.00 | 28 | 1018.9 |
| 20260831182916 | 82 | 268 | 4.0 | 11.0 | 0.00 | 0.00 | 0.00 | 27 | 1018.6 |
| 20260831182443 | 83 | 243 | 6.0 | 13.0 | 0.00 | 0.00 | 0.00 | 27 | 1018.9 |
| 20260831182416 | 83 | 247 | 6.0 | 13.0 | 0.00 | 0.00 | 0.00 | 27 | 1018.9 |
| 20260831181916 | 83 | 250 | 5.0 | 15.0 | 0.00 | 0.00 | 0.00 | 26 | 1018.7 |
| 20260831181443 | 83 | 255 | 5.0 | 16.0 | 0.00 | 0.00 | 0.00 | 25 | 1018.7 |
| 20260831181416 | 83 | 254 | 5.0 | 16.0 | 0.00 | 0.00 | 0.00 | 25 | 1018.7 |
| 20260831181152 | 83 | 245 | 7.0 | 16.0 | 0.00 | 0.00 | 0.00 | 25 | 1018.6 |
| 20260831180442 | 83 | 239 | 8.0 | 16.0 | 0.00 | 0.00 | 0.00 | 26 | 1018.4 |
| 20260831180416 | 83 | 236 | 8.0 | 16.0 | 0.00 | 0.00 | 0.00 | 26 | 1018.4 |
| 20260831175916 | 84 | 239 | 8.0 | 16.0 | 0.00 | 0.00 | 0.00 | 25 | 1018.4 |
| 20260831175442 | 84 | 245 | 8.0 | 16.0 | 0.00 | 0.00 | 0.00 | 23 | 1018.5 |
| 20260831175416 | 84 | 248 | 7.0 | 15.0 | 0.00 | 0.00 | 0.00 | 23 | 1018.5 |
| 20260831174916 | 84 | 247 | 7.0 | 15.0 | 0.00 | 0.00 | 0.00 | 24 | 1018.4 |
| 20260831174443 | 84 | 245 | 6.0 | 16.0 | 0.00 | 0.00 | 0.00 | 24 | 1018.3 |
| 20260831174416 | 84 | 242 | 6.0 | 16.0 | 0.00 | 0.00 | 0.00 | 24 | 1018.3 |
| 20260831173916 | 84 | 237 | 7.0 | 16.0 | 0.00 | 0.00 | 0.00 | 24 | 1018.4 |
| 20260831173443 | 84 | 232 | 9.0 | 16.0 | 0.00 | 0.00 | 0.00 | 23 | 1018.3 |
| 20260831173416 | 84 | 234 | 9.0 | 16.0 | 0.00 | 0.00 | 0.00 | 23 | 1018.3 |
| 20260831172916 | 85 | 238 | 9.0 | 17.0 | 0.00 | 0.00 | 0.00 | 23 | 1018.3 |
| 20260831172444 | 85 | 234 | 8.0 | 17.0 | 0.00 | 0.00 | 0.00 | 22 | 1018.3 |
| 20260831172415 | 85 | 233 | 8.0 | 17.0 | 0.00 | 0.00 | 0.00 | 22 | 1018.3 |
| 20260831171916 | 85 | 225 | 7.0 | 19.0 | 0.00 | 0.00 | 0.00 | 23 | 1018.2 |
| 20260831171634 | 85 | 226 | 7.0 | 19.0 | 0.00 | 0.00 | 0.00 | 22 | 1018.3 |
| 20260831170917 | 86 | 226 | 8.0 | 19.0 | 0.00 | 0.00 | 0.00 | 23 | 1018.4 |
| 20260831170442 | 86 | 228 | 8.0 | 19.0 | 0.00 | 0.00 | 0.00 | 22 | 1018.5 |
| 20260831170415 | 86 | 229 | 8.0 | 19.0 | 0.00 | 0.00 | 0.00 | 22 | 1018.5 |
| 20260831165916 | 87 | 232 | 7.0 | 16.0 | 0.00 | 0.00 | 0.00 | 23 | 1018.6 |
| 20260831165445 | 87 | 241 | 8.0 | 16.0 | 0.00 | 0.00 | 0.00 | 22 | 1018.7 |
| 20260831165416 | 87 | 241 | 7.0 | 16.0 | 0.00 | 0.00 | 0.00 | 23 | 1018.7 |
| 20260831165145 | 87 | 241 | 8.0 | 16.0 | 0.00 | 0.00 | 0.00 | 23 | 1018.6 |
| 20260831164416 | 88 | 240 | 7.0 | 16.0 | 0.00 | 0.00 | 0.00 | 22 | 1018.4 |
| 20260831163916 | 88 | 247 | 8.0 | 17.0 | 0.00 | 0.00 | 0.00 | 21 | 1018.4 |
| 20260831163442 | 88 | 241 | 8.0 | 18.0 | 0.00 | 0.00 | 0.00 | 21 | 1018.4 |
| 20260831163416 | 88 | 239 | 8.0 | 18.0 | 0.00 | 0.00 | 0.00 | 21 | 1018.4 |
| 20260831162916 | 88 | 233 | 8.0 | 20.0 | 0.00 | 0.00 | 0.00 | 22 | 1018.4 |
| 20260831162652 | 88 | 234 | 8.0 | 20.0 | 0.00 | 0.00 | 0.00 | 21 | 1018.4 |
| 20260831162633 | 88 | 232 | 9.0 | 20.0 | 0.00 | 0.00 | 0.00 | 21 | 1018.4 |
| 20260831161916 | 89 | 229 | 8.0 | 20.0 | 0.00 | 0.00 | 0.00 | 21 | 1018.3 |
| 20260831161441 | 89 | 228 | 8.0 | 20.0 | 0.00 | 0.00 | 0.00 | 21 | 1018.4 |
| 20260831161416 | 89 | 229 | 8.0 | 20.0 | 0.00 | 0.00 | 0.00 | 21 | 1018.4 |